UTTI current weather conditions

sailwx.info

Wind from 130 at 5 knots

Air temperature 8.0° C
Visibility: greater than 5.4 NM
Dewpoint 6.0° C
Present weather: Light rain showers.

Last reported at 2015-Apr-27 16:20 UTC.
Time now 2015-Apr-27 18:33 UTC

Location: N 60°54' E 026°56'.
View on Google Maps.

See reports from other nearby stations

  
Tides and Currents Weather Stations Pressure Air Temp Water Temp Dewpoint Dewpoint Depression Visibility Wind Speed Wind Dir Waves Ship Positions
date/time (UTC)wind fromknots sea level pressurealtimeterstation pressurevisibilityair tempwater tempwave heightnotes
2015-Apr-27 17:20 130 3 5.4 8.0 Light rain showers.
2015-Apr-27 16:50 140 4 5.4 8.0 Light rain showers.
2015-Apr-27 16:20 130 5 5.4 8.0 Light rain showers.
2015-Apr-27 15:50 150 5 5.4 9.0 Light rain showers.
2015-Apr-27 15:20 150 5 5.4 9.0 Light rain showers.
2015-Apr-27 14:50 150 5 5.4 9.0 Light rain showers.
2015-Apr-27 14:20 160 5 5.4 9.0
2015-Apr-27 13:50 170 6 5.4 9.0
2015-Apr-27 13:20 150 7 5.4 9.0
2015-Apr-27 12:50 160 7 5.410.0
2015-Apr-27 12:20 130 6 5.4 9.0
2015-Apr-27 11:50 170 5 5.4 9.0
2015-Apr-27 11:20 160 6 5.4 9.0
2015-Apr-27 10:50 5.4 9.0
2015-Apr-27 10:20 160 6 5.4 8.0
2015-Apr-27 09:50 160 6 5.4 8.0
2015-Apr-27 09:20 160 6 5.4 9.0
2015-Apr-27 08:50 150 4 5.4 9.0
2015-Apr-27 08:20 210 6 5.4 7.0
2015-Apr-27 07:50 150 4 5.4 7.0
2015-Apr-27 07:20 140 4 5.4 7.0
2015-Apr-27 06:50 190 5 5.4 6.0
2015-Apr-27 06:20 220 3 5.4 6.0
2015-Apr-27 05:50 270 2 5.4 6.0
2015-Apr-27 05:20 190 2 4.3 5.0
2015-Apr-27 04:50 210 2 0.5 5.0 Mist.
2015-Apr-27 04:20 180 2 0.2 5.0 Fog.
2015-Apr-27 03:50 160 1 0.2 5.0 Fog.
2015-Apr-27 03:20 180 1 0.1 4.0 Fog.
2015-Apr-27 02:50 170 2 0.1 4.0 Fog.
2015-Apr-27 02:20 170 2 0.1 4.0 Fog.
2015-Apr-27 01:50 170 3 0.1 4.0 Fog.
2015-Apr-27 01:20 150 3 0.1 4.0 Fog.
2015-Apr-27 00:50 160 4 0.2 4.0 Fog.
2015-Apr-27 00:20 180 3 0.5 4.0 Mist.
2015-Apr-26 23:50 140 3 0.2 4.0 Fog.
2015-Apr-26 23:20 130 3 0.1 4.0 Fog.
2015-Apr-26 22:50 150 2 0.1 4.0 Fog.
2015-Apr-26 22:20 150 2 0.1 4.0 Fog.
2015-Apr-26 21:50 140 1 0.2 4.0 Fog.
2015-Apr-26 21:20 210 4 0.8 4.0 Mist.
2015-Apr-26 20:50 160 2 0.3 4.0 Fog.
2015-Apr-26 20:20 130 4 0.4 4.0 Fog.
2015-Apr-26 19:50 130 4 0.4 4.0 Fog.
2015-Apr-26 19:20 150 3 0.9 4.0 Mist.
2015-Apr-26 18:50 130 5 0.9 4.0 Mist.
2015-Apr-26 18:20 120 5 1.0 4.0 Mist.
2015-Apr-26 17:50 130 6 1.0 4.0 Mist.
2015-Apr-26 17:20 130 7 1.2 4.0 Mist.
2015-Apr-26 16:50 130 8 1.3 5.0 Mist.
2015-Apr-26 16:20 120 10 1.5 5.0 Mist.
2015-Apr-26 15:50 120 10 1.8 5.0 Light rain. Mist.
2015-Apr-26 15:20 120 11 2.2 5.0 Light rain. Mist.
2015-Apr-26 14:50 120 11 2.7 5.0 Light rain. Mist.
2015-Apr-26 14:20 120 13 3.8 5.0 Light rain.
2015-Apr-26 13:50 120 11 5.4 5.0 Light rain.
2015-Apr-26 13:20 110 12 5.4 5.0 Light rain.
2015-Apr-26 12:50 120 9 5.4 5.0 Rain.
2015-Apr-26 12:20 120 10 5.4 5.0 Light rain.
2015-Apr-26 11:50 110 13 5.4 5.0 Light rain.
2015-Apr-26 11:20 120 13 5.4 5.0 Light rain.
2015-Apr-26 10:50 120 13 5.4 5.0 Light rain.
2015-Apr-26 10:20 120 12 5.4 5.0 Light rain.
2015-Apr-26 09:50 120 11 5.4 5.0 Light rain.
2015-Apr-26 09:20 110 13 5.4 5.0 Light rain.
2015-Apr-26 08:50 110 14 5.4 5.0 Light rain.
2015-Apr-26 08:20 110 10 5.4 5.0 Light rain.
2015-Apr-26 07:50 120 12 5.4 6.0 Light rain.
2015-Apr-26 07:20 110 12 5.4 6.0 Light rain.
2015-Apr-26 06:50 100 13 5.4 6.0
2015-Apr-26 06:20 110 12 5.4 5.0
2015-Apr-26 05:50 100 12 5.4 5.0
2015-Apr-26 05:20 100 10 5.4 4.0
2015-Apr-26 04:50 110 10 5.4 4.0 Light rain showers.
2015-Apr-26 04:20 110 9 5.4 4.0 Light rain showers.
2015-Apr-26 03:50 110 11 5.4 4.0 Light rain.
2015-Apr-26 03:20 110 10 5.4 3.0 Light rain.
2015-Apr-26 02:50 100 7 5.4 3.0 Light rain.
2015-Apr-26 02:20 090 8 5.4 3.0 Light rain.
2015-Apr-26 01:50 110 6 5.4 3.0 Light rain.
2015-Apr-26 01:20 120 5 5.4 3.0 Light rain.
2015-Apr-26 00:50 140 4 5.4 3.0 Light rain.
2015-Apr-26 00:20 130 6 4.0
2015-Apr-25 23:50 130 7 4.0
2015-Apr-25 23:20 130 7 3.0
2015-Apr-25 22:50 120 7 3.0
2015-Apr-25 22:20 110 7 3.0
2015-Apr-25 21:50 120 5 3.0
2015-Apr-25 21:20 150 4 3.0
2015-Apr-25 20:50 170 6 4.0
2015-Apr-25 20:20 140 5 4.0
2015-Apr-25 19:50 120 5 4.0
2015-Apr-25 19:20 150 4 5.0
2015-Apr-25 18:50 170 4 6.0
2015-Apr-25 18:20 160 5 6.0